User: anonymous   Login
Location: Unspecified
(0.0000°N, 0.0000°E)
Time: 08:47:46
(UTC+00:00)
Language:

TBA - TO BE ASSIGNED - Orbit

View from above orbital plane
View from above orbital plane
View from above satellite
View from above satellite

Ground track
Ground track

The orbit is defined by the following mean orbital elements,

1 68844U          26145.58335647 +.00000000 +00000-0 +37597-3 0 00006
2 68844  97.2853 160.2713 0001164  98.6586 104.6439 15.49143115    01
Epoch (UTC): 25 May 2026 14:00:01
Eccentricity: 0.0001164
inclination: 97.2853°
perigee height: 418 km
apogee height: 420 km
right ascension of ascending node: 160.2713°
argument of perigee: 98.6586°
revolutions per day: 15.49143115
mean anomaly at epoch: 104.6439°

The dashed part of the orbit path shows where the satellite is in the earth's shadow,  

DLR